RH
28 25 27 28 29 29 29 32 31 32 34 34 34 35 37 37 37 39 39 39 39 39 39 38 39 39 40 39 36 38 45 48 48 50 46 40 37 35 31 28 27 26 25 26 27 27 27 27 28 28 28 28 29 28 27 27 27 29 28 26 25 25 27 26 25 25 24 23 21 20 21 18 19 24 25 23 21 22 24 24 22 23 21 18 17 19 20 17 16 17 17 18 19 22 25 26 26
30 28 27 28 29 28 29 30 28 29 31 32 34 34 35 34 36 37 38 39 38 38 39 40 42 42 42 40 39 41 48 50 45 44 43 40 38 35 30 29 28 26 26 26 27 27 27 27 28 28 28 28 29 29 28 28 29 30 28 25 25 25 26 25 23 23 23 22 19 18 18 17 16 19 20 23 26 26 27 26 23 21 20 17 16 18 18 15 15 15 17 18 19 21 24 25 25
32 31 29 29 30 29 29 28 27 29 29 31 32 32 33 34 35 37 37 37 37 37 39 42 43 45 44 43 40 42 49 51 45 40 41 41 37 33 30 30 30 27 26 26 27 27 27 27 27 27 28 28 29 29 29 29 30 31 29 25 25 25 25 24 23 22 22 22 20 18 17 18 17 17 22 28 32 32 31 29 23 20 19 17 17 18 16 14 15 15 16 18 19 21 22 23 23
32 33 32 31 31 30 28 27 27 28 27 30 30 30 31 32 34 37 38 38 38 39 40 42 43 44 44 43 41 41 46 51 47 40 41 42 37 32 30 30 31 28 27 27 27 27 27 27 27 27 27 28 29 29 29 30 31 32 30 27 26 25 24 24 23 22 22 22 22 19 17 19 17 19 28 33 34 35 33 29 22 19 20 19 18 16 14 14 14 15 17 18 18 20 21 22 22
33 33 34 33 32 29 27 27 28 27 26 29 30 30 30 31 32 34 37 40 41 42 43 43 44 45 43 44 44 43 45 49 48 43 42 42 41 37 31 29 31 30 28 27 28 28 27 27 26 26 27 28 29 29 29 30 31 33 30 28 26 26 24 24 23 22 22 22 22 21 19 20 21 25 31 35 36 37 34 26 20 19 20 21 18 15 14 14 15 15 17 18 18 20 21 22 22
35 34 36 36 33 30 29 28 27 26 27 28 30 32 32 32 33 36 39 40 43 44 45 45 47 47 47 48 47 46 47 47 49 47 44 43 43 41 35 30 32 31 28 28 28 28 28 27 26 26 27 27 28 29 29 29 31 33 31 28 27 26 24 24 23 23 22 22 23 24 24 24 26 29 32 36 37 37 33 24 20 21 21 20 17 15 14 15 15 16 17 18 19 21 22 22 22
37 37 37 38 35 32 31 29 27 26 27 29 30 33 35 34 34 40 43 42 44 45 45 48 48 47 48 49 48 47 46 46 48 46 45 45 42 42 38 32 33 32 29 29 29 29 28 28 27 26 26 27 27 28 29 29 30 32 31 28 27 27 25 24 24 23 23 24 25 28 32 32 30 30 30 35 36 37 32 24 22 23 21 20 17 16 15 15 16 16 17 18 20 22 23 24 24
43 42 40 39 38 35 33 31 29 27 28 30 30 33 37 36 35 41 44 43 45 47 47 49 48 46 49 48 48 47 45 46 46 44 45 43 41 43 40 34 34 32 30 30 30 30 29 29 28 27 27 27 27 28 28 28 29 31 30 27 26 26 25 23 23 23 23 24 26 30 36 40 37 33 33 35 38 39 32 25 24 23 21 20 18 17 15 16 16 16 17 18 21 23 24 25 25
46 47 45 42 41 38 34 32 30 28 28 30 31 34 37 38 37 39 43 43 45 48 50 52 47 47 50 49 48 47 45 46 45 43 44 44 47 49 42 34 32 31 31 32 31 32 31 31 30 29 28 28 27 27 28 27 28 30 29 26 25 25 24 23 22 22 22 22 24 28 37 43 41 37 37 39 40 38 32 27 24 23 22 21 19 17 17 16 16 17 18 19 22 23 24 25 24
41 43 45 46 45 42 38 33 31 29 28 30 32 33 35 38 38 40 42 42 46 47 50 52 49 50 53 52 51 47 46 47 46 44 42 46 52 50 42 34 31 30 33 34 34 34 33 33 32 30 29 28 28 27 27 27 28 30 29 26 25 25 24 23 21 21 21 21 22 25 34 42 41 38 39 40 39 34 30 27 25 24 22 21 19 18 18 17 17 17 18 20 22 24 24 24 24
38 39 41 44 45 44 41 37 34 29 28 30 32 32 33 36 37 41 43 45 48 48 50 51 50 53 55 56 54 49 48 46 44 43 41 42 46 46 40 34 32 32 35 37 36 35 34 34 33 32 31 29 28 27 27 27 27 29 28 26 25 24 24 23 21 20 20 20 21 23 30 39 42 41 40 40 35 30 27 26 25 24 22 21 20 19 19 18 18 18 19 21 22 24 25 25 25
39 42 41 40 40 40 41 41 37 32 29 30 32 32 32 33 34 38 41 45 50 50 51 50 50 52 54 58 56 51 50 46 44 44 41 38 39 42 40 36 35 35 38 39 37 36 35 34 34 33 32 30 29 28 27 27 27 28 27 26 26 25 23 23 22 20 19 19 20 22 27 34 40 41 41 40 35 30 25 24 23 23 22 21 21 21 20 20 20 19 20 22 23 25 26 26 26
37 43 43 38 36 37 38 39 40 37 33 31 32 31 32 34 34 36 40 44 47 49 50 50 49 50 54 60 58 53 50 47 46 45 41 38 37 38 40 39 38 39 41 41 39 37 35 34 34 33 32 31 30 29 28 27 26 27 27 26 28 26 23 24 22 20 19 18 19 21 24 29 35 38 40 40 39 35 27 23 23 23 23 22 22 22 22 22 21 22 23 24 26 27 28 28 28
39 41 42 37 33 34 35 34 37 40 37 33 32 32 33 34 35 38 42 43 45 47 48 50 49 50 56 61 60 56 51 49 49 48 43 39 38 38 40 42 42 43 44 44 42 40 38 36 34 32 31 31 31 31 29 28 27 27 27 27 29 27 24 25 23 21 18 18 19 20 23 26 31 34 38 40 41 39 30 25 24 23 23 23 23 23 23 23 23 24 25 27 29 30 30 30 29
43 44 43 40 35 33 33 32 33 37 40 37 32 32 33 34 37 40 44 43 43 45 47 50 48 49 55 57 58 55 51 51 51 51 47 42 41 41 42 44 45 46 47 46 45 43 41 38 35 31 30 31 31 32 31 30 29 27 27 29 31 27 26 26 24 21 18 18 18 19 23 25 28 31 34 39 40 39 33 29 28 27 25 25 25 25 25 26 26 27 29 31 33 33 32 31 31
41 45 47 43 38 34 32 33 34 32 35 40 36 34 34 36 39 39 42 43 43 44 45 48 47 49 53 54 55 53 51 52 52 53 51 47 44 45 46 46 47 48 49 49 47 47 45 41 37 31 30 31 32 34 34 34 33 30 29 30 31 29 27 27 25 22 19 18 18 19 22 24 27 27 30 35 38 38 34 31 31 31 29 27 26 27 28 29 30 30 33 35 36 35 34 33 35
38 42 44 41 40 38 33 34 36 32 31 38 40 38 36 37 40 38 39 42 44 45 45 46 48 50 53 55 55 54 52 52 51 53 52 50 47 47 48 47 49 50 51 52 50 48 46 43 38 32 31 31 32 35 36 40 38 34 32 33 34 33 29 29 26 23 20 18 18 18 21 24 26 26 27 30 34 38 34 31 33 34 33 31 30 31 32 34 34 35 38 39 39 38 37 39 40
39 38 38 36 37 38 35 34 34 33 30 34 39 39 38 36 38 39 40 44 45 46 46 47 49 51 53 56 56 55 53 51 51 53 53 50 48 47 48 49 49 50 53 53 50 47 47 45 39 34 33 33 32 34 36 41 41 37 34 36 39 37 32 30 28 24 21 19 18 18 20 23 25 26 26 26 32 37 32 30 33 34 35 34 33 34 35 37 37 39 41 42 41 40 42 45 47
40 39 37 31 32 34 36 36 35 34 30 32 37 39 39 37 37 40 41 46 46 46 47 47 49 52 54 56 57 56 54 53 53 55 53 50 49 48 47 48 49 51 52 51 47 46 48 46 41 36 35 35 33 33 35 38 39 38 36 38 42 40 34 32 30 26 22 20 19 18 19 22 24 26 26 25 28 31 30 30 31 33 36 35 35 35 37 39 41 43 44 44 43 43 48 52 54
38 40 37 28 27 31 34 37 38 37 34 33 35 37 40 39 39 40 40 45 46 44 46 45 45 48 52 54 55 56 55 55 55 56 54 50 50 48 47 46 47 50 51 48 45 44 45 46 42 38 35 34 33 33 34 36 37 37 37 39 42 40 35 33 31 27 23 20 19 18 19 21 24 26 26 25 24 26 27 29 30 34 36 36 36 35 38 41 43 45 46 45 44 46 53 57 59
34 35 31 24 26 30 32 35 38 40 39 37 37 38 39 39 42 42 40 45 46 44 44 41 39 41 45 49 51 53 54 55 55 55 54 52 50 49 47 46 46 49 50 47 44 42 44 44 42 39 35 34 33 33 33 35 36 36 36 37 38 37 35 34 31 27 23 21 20 19 20 21 24 25 26 25 24 24 26 28 30 34 37 37 38 38 40 42 43 45 46 46 46 50 56 61 63
30 28 24 23 28 31 32 34 36 38 40 42 43 41 38 39 43 44 41 41 43 43 42 37 36 37 40 43 45 49 53 56 55 53 55 55 52 49 48 48 48 50 50 45 42 43 44 43 41 40 36 34 34 32 32 34 34 34 34 34 34 33 33 32 30 27 23 22 20 20 21 21 23 25 25 25 25 25 27 29 31 34 38 40 41 42 43 43 44 46 47 48 48 52 58 63 66
24 23 22 25 28 31 32 33 34 35 38 41 44 43 43 43 43 43 42 40 41 42 40 37 37 38 39 39 41 45 51 54 54 52 54 54 51 48 48 48 48 50 50 45 42 44 44 42 40 40 37 37 36 33 32 34 33 32 32 31 30 30 30 29 29 26 23 21 20 20 21 21 23 24 25 24 25 26 29 31 32 34 39 42 44 45 45 45 46 48 51 52 52 54 60 66 70
20 20 21 24 26 28 29 31 33 34 35 36 38 42 45 46 42 41 42 42 43 43 40 39 39 38 38 39 40 43 47 49 52 53 52 53 51 48 47 48 48 49 50 48 46 44 44 43 42 41 40 40 38 34 33 33 31 30 29 30 29 28 28 28 27 25 22 20 19 20 20 20 22 23 24 24 24 27 30 32 33 36 39 43 46 47 48 49 50 53 55 57 58 60 66 72 75
19 19 20 23 24 25 27 29 32 33 34 34 35 36 39 42 42 43 42 41 43 43 42 41 40 38 37 39 40 42 46 46 50 54 53 53 54 51 49 47 48 49 49 50 48 45 46 46 45 44 42 42 39 34 33 32 29 28 28 29 29 28 27 26 25 23 20 18 17 17 17 18 19 22 25 24 25 27 30 32 33 37 40 43 46 48 50 53 57 60 59 61 65 68 73 77 81
19 19 20 21 22 23 25 27 29 32 34 35 35 32 31 36 42 43 39 38 42 44 44 41 39 39 39 40 40 40 44 46 49 53 54 55 56 54 53 50 47 48 48 50 49 47 48 46 44 43 42 42 38 34 33 30 28 27 27 28 28 28 27 25 23 21 19 17 15 15 15 15 18 23 26 26 27 30 33 35 36 39 42 45 47 50 55 60 64 64 62 64 69 73 77 81 83
19 19 19 20 21 22 23 25 27 30 32 34 34 31 30 33 39 39 34 36 40 42 44 43 42 43 41 40 40 40 42 45 49 51 53 55 56 56 56 52 48 47 46 48 48 49 49 45 42 42 41 40 37 35 33 30 27 26 26 27 28 28 27 25 23 22 20 18 16 15 14 14 18 24 27 29 32 36 39 41 42 43 44 46 48 54 63 68 69 68 67 68 72 75 80 83 84
19 19 19 19 19 21 22 23 25 28 29 31 32 32 33 34 33 31 32 35 38 40 43 44 43 43 42 39 40 42 41 43 47 48 50 51 51 54 55 52 49 49 46 45 46 49 49 44 41 41 40 38 37 36 33 30 27 26 27 27 28 28 27 25 24 23 22 20 18 16 15 16 20 24 28 31 36 41 44 47 51 50 48 49 53 61 69 73 73 73 73 73 75 77 80 82 83
20 20 19 19 19 20 21 22 24 25 26 28 31 34 35 31 24 23 30 34 36 38 40 41 42 40 40 40 40 43 45 46 47 45 47 48 47 49 52 51 50 49 47 43 42 46 47 43 40 40 38 37 37 36 33 30 28 27 28 28 29 29 27 26 24 23 23 22 21 19 17 19 23 25 28 32 37 43 47 51 56 58 55 53 57 64 71 74 75 76 76 77 78 78 80 82 83
23 21 20 19 20 19 18 20 23 24 24 25 30 33 29 22 18 22 28 31 33 36 35 38 41 40 40 41 40 41 44 47 47 44 45 47 48 48 50 51 50 49 47 42 39 42 44 41 39 38 37 37 36 36 34 31 30 30 30 31 31 30 28 25 24 23 23 23 23 21 20 22 24 24 28 34 40 46 50 54 59 62 59 56 59 64 70 74 77 77 78 79 80 80 80 81 82
24 24 23 21 20 19 18 19 21 22 23 25 28 29 23 17 16 22 27 28 31 34 33 34 38 40 41 39 38 39 41 44 46 45 44 46 47 47 47 50 50 48 46 41 38 39 41 40 37 36 38 38 35 35 35 33 33 34 33 33 32 29 27 25 25 24 23 23 24 24 23 24 25 26 30 36 43 49 53 57 62 63 60 58 61 65 70 74 77 78 79 80 81 80 80 82 83
21 25 27 26 24 22 19 19 20 21 23 25 27 25 20 17 17 22 26 27 28 31 32 32 34 38 40 40 38 38 40 43 45 46 46 46 46 46 46 49 50 48 45 41 38 39 40 40 38 37 41 41 37 35 36 36 36 37 36 34 33 31 28 26 25 24 22 23 23 24 25 25 28 30 34 41 48 51 54 59 63 63 60 61 65 68 71 74 77 79 78 80 80 79 80 83 84
17 22 26 29 30 28 23 20 20 21 22 24 26 24 20 18 19 21 24 25 26 29 31 32 32 34 38 40 39 39 43 45 44 44 47 46 44 44 48 50 50 48 46 44 40 38 40 40 40 41 43 44 42 38 37 38 39 39 38 36 36 34 33 30 27 25 23 23 23 24 25 28 32 36 41 48 53 54 56 60 62 61 60 63 68 71 73 74 76 77 76 77 78 79 80 84 85
15 17 22 27 29 32 29 25 23 21 22 22 23 23 20 19 20 20 21 22 25 27 29 31 31 33 35 38 38 38 42 45 42 43 47 48 43 41 47 50 49 48 49 48 43 38 38 40 42 45 45 45 45 42 40 41 41 41 40 39 38 36 35 34 30 26 24 23 25 26 26 29 36 40 46 53 55 56 58 61 61 60 61 65 70 73 74 74 75 75 74 75 76 79 81 83 84
17 17 19 22 24 28 31 30 28 25 23 22 21 21 20 20 21 21 21 21 24 26 26 29 31 33 34 37 38 38 40 42 41 42 46 49 44 42 47 51 49 48 48 49 47 42 37 41 45 46 47 46 47 46 45 45 45 44 43 43 42 37 34 34 32 28 25 24 26 28 28 31 37 43 48 54 56 57 60 62 61 61 62 66 71 74 75 76 75 74 73 74 75 78 80 81 81
19 19 20 21 24 26 27 28 30 29 27 24 21 20 20 21 21 21 21 21 24 24 25 28 31 33 34 36 38 39 40 39 38 41 44 47 45 44 47 49 49 49 48 48 51 48 41 42 47 47 47 46 46 49 49 49 49 48 47 45 43 39 34 32 32 29 27 26 27 28 29 31 36 43 48 53 56 58 61 62 62 63 64 68 72 75 77 77 76 74 73 73 75 77 78 80 81
19 20 20 21 22 24 23 23 26 29 31 28 23 21 22 23 22 21 22 22 23 23 24 27 31 36 37 37 38 39 40 36 36 40 43 46 47 47 48 48 50 52 51 48 49 51 46 43 45 46 47 46 46 49 51 51 51 50 49 47 44 42 36 33 32 30 28 28 28 29 31 33 37 43 48 52 56 58 61 64 64 65 67 70 73 76 78 77 76 76 74 73 75 78 78 81 81
23 22 21 21 19 19 19 20 21 26 32 31 27 25 25 24 22 22 22 22 22 22 23 24 28 35 38 38 38 38 38 36 38 41 42 45 48 50 50 48 50 52 51 48 47 51 50 43 43 44 45 46 48 50 53 54 53 52 50 48 46 43 38 36 34 31 30 31 32 33 36 37 38 41 47 52 56 59 61 64 65 66 68 72 75 76 77 76 76 77 75 74 76 78 80 82 82
27 26 25 23 19 16 15 16 18 24 29 29 29 29 28 26 23 22 22 22 21 21 22 23 25 31 37 40 39 38 38 38 40 41 40 43 47 50 51 50 50 51 50 49 48 51 51 44 40 40 43 47 51 53 55 57 56 54 51 49 47 44 39 38 36 34 34 34 35 36 38 39 39 40 44 49 54 57 60 63 64 66 69 73 75 75 74 74 74 75 74 74 75 78 81 83 81
30 28 27 25 22 18 17 16 16 19 24 26 28 29 29 28 26 23 22 21 21 21 21 21 23 27 31 34 34 35 36 36 38 39 39 43 46 48 50 50 49 49 48 47 49 52 50 43 38 38 43 50 53 54 56 57 57 56 54 51 49 45 41 39 38 38 37 36 36 37 39 40 41 42 44 47 52 56 60 63 64 66 70 72 72 71 71 69 70 71 73 75 76 79 81 81 80
32 29 27 25 23 22 21 19 17 15 16 19 24 28 30 29 28 25 22 21 21 21 20 20 20 22 25 29 31 31 31 32 34 37 39 41 45 47 47 47 46 45 45 45 48 50 47 42 38 38 44 51 52 53 56 56 55 55 54 53 51 46 44 42 42 40 39 38 37 38 40 41 42 43 45 48 52 56 61 64 66 68 70 70 68 66 66 66 68 71 74 77 78 80 81 79 79
33 31 28 25 25 25 24 23 21 19 14 13 17 23 27 28 27 26 24 23 21 20 20 20 19 19 22 26 30 31 30 31 33 35 36 39 42 43 44 45 45 44 44 46 49 48 44 40 39 40 43 48 50 51 54 53 52 51 51 51 49 46 46 45 43 40 38 38 38 39 40 40 41 43 45 48 52 57 61 64 66 68 70 68 64 62 62 64 68 72 75 79 82 82 81 78 76
34 31 30 29 29 28 26 25 26 22 16 14 16 19 23 26 25 25 25 24 23 21 20 19 18 19 20 21 24 28 29 30 33 35 36 38 40 40 42 45 46 44 44 46 48 46 43 41 41 41 42 45 49 50 50 50 49 50 50 51 48 46 46 46 45 42 39 37 37 37 37 37 40 44 45 47 51 56 61 63 65 68 69 66 61 59 60 62 67 72 77 83 86 84 82 79 73
33 29 30 33 33 30 28 29 28 23 18 18 17 18 21 23 22 23 25 25 24 23 20 18 18 17 18 19 19 23 26 26 30 34 37 37 38 40 43 45 46 45 45 46 46 45 43 42 42 42 42 45 47 47 46 47 48 49 50 51 50 47 47 47 47 45 42 39 37 36 36 35 40 45 46 47 50 55 59 62 65 67 66 62 59 58 59 62 66 72 79 85 87 86 83 77 70
31 30 30 31 33 32 31 33 31 26 25 24 19 16 18 18 16 18 23 26 24 23 21 18 17 17 17 17 17 19 22 24 26 31 37 38 38 43 47 46 46 45 45 45 45 46 45 44 45 45 44 45 44 43 43 45 47 48 49 50 50 49 48 47 47 46 45 42 39 37 35 36 42 47 47 48 51 54 59 63 65 65 63 59 57 58 60 64 68 72 77 82 85 85 81 74 68
30 30 30 29 31 31 32 36 33 32 33 28 21 17 15 13 13 14 19 24 23 22 21 19 17 17 17 17 18 18 20 23 25 29 36 39 40 45 49 48 47 45 46 47 47 48 47 48 47 46 44 43 43 41 42 44 46 47 48 48 49 50 50 49 48 47 46 43 39 37 35 37 44 47 46 49 53 56 61 65 64 62 59 57 56 58 63 67 70 72 75 79 83 82 77 72 70
31 30 30 30 30 30 32 35 34 38 38 27 21 21 18 14 13 12 12 17 20 21 21 21 19 18 17 18 18 18 20 23 24 26 31 36 40 46 49 50 50 49 49 49 49 48 48 49 47 45 44 42 42 42 42 43 45 46 47 48 49 50 50 50 50 48 47 44 40 38 36 39 44 46 46 50 54 59 64 64 60 57 55 55 57 61 66 68 70 74 75 76 78 77 73 72 73
34 33 31 30 30 30 32 34 38 45 38 23 19 23 24 21 16 12 9 9 15 20 22 22 22 20 18 19 18 18 19 21 23 24 26 31 38 43 46 49 52 53 51 48 47 46 48 48 47 45 44 41 41 42 42 43 44 45 47 49 49 49 49 50 50 49 47 46 43 40 38 41 43 44 46 52 56 61 64 62 57 55 54 55 59 63 67 68 72 80 78 72 73 74 72 73 74
38 36 35 33 31 35 38 36 39 42 33 22 21 25 27 25 19 13 9 7 10 15 20 21 22 22 20 19 18 18 19 20 23 24 24 28 33 38 41 44 49 52 51 48 44 43 46 48 49 47 44 41 40 41 41 41 43 46 48 49 49 48 48 50 50 49 47 47 45 42 40 42 41 42 46 51 57 61 63 60 56 55 54 55 59 63 67 67 73 81 78 70 72 73 72 73 73
43 40 38 33 31 39 43 39 39 37 28 23 24 28 30 24 18 14 9 7 7 9 14 19 21 23 22 20 18 18 19 20 21 23 24 25 28 34 37 40 45 48 49 48 43 40 44 48 48 47 45 42 40 40 40 39 41 46 48 49 49 47 46 48 49 48 47 46 44 42 42 42 40 40 46 51 55 60 61 58 55 54 54 56 59 63 66 67 70 75 74 71 72 72 71 72 71
46 41 40 37 31 33 35 34 36 34 27 26 28 33 33 23 17 15 9 7 7 6 9 15 20 22 22 21 19 19 19 19 20 21 23 23 25 30 34 37 42 46 48 48 44 41 45 48 46 45 44 43 41 40 39 39 42 45 47 48 48 46 44 46 47 47 46 46 44 42 44 44 40 39 45 50 55 59 60 58 55 54 55 57 60 63 66 67 70 73 73 72 70 69 70 71 69
47 44 44 41 31 28 28 28 31 32 32 34 34 36 32 21 18 16 12 9 8 7 7 9 15 19 21 22 21 19 18 18 19 19 20 22 23 25 30 35 41 45 46 46 46 43 44 46 45 43 42 41 40 39 38 40 42 45 46 46 46 46 44 44 46 46 45 46 45 43 45 46 41 39 44 50 54 58 60 57 55 56 57 58 60 62 65 69 71 73 73 70 67 66 66 66 65
49 47 44 36 29 30 32 31 30 33 38 38 32 31 28 21 18 14 12 12 9 8 8 7 10 16 20 23 22 20 19 18 18 18 18 20 21 23 27 35 41 43 42 42 43 44 43 44 43 41 40 39 39 38 38 41 44 45 45 45 46 47 45 44 46 45 46 46 45 44 46 46 42 39 43 49 53 57 58 57 56 57 58 59 60 62 65 69 72 73 72 69 66 64 63 61 59
51 50 44 38 39 39 38 39 38 37 40 36 29 28 27 23 21 16 12 12 10 8 8 7 8 13 18 21 22 21 20 18 18 18 18 18 20 21 24 32 39 40 38 38 41 43 43 43 41 39 38 37 36 36 38 43 46 46 46 47 47 47 45 45 45 45 46 47 44 42 45 46 43 39 42 48 51 54 56 57 57 59 59 58 59 62 66 70 72 73 72 68 64 62 60 55 52
52 52 48 47 48 43 38 41 43 44 42 36 29 27 25 24 22 18 15 13 11 9 9 10 9 9 14 19 21 22 21 20 18 17 18 17 17 19 21 27 34 35 34 35 39 41 41 41 40 38 37 38 37 37 41 46 48 47 49 48 46 45 45 45 45 46 46 45 43 42 44 45 43 39 42 47 50 53 54 55 58 59 59 58 58 61 67 70 72 73 70 66 63 61 56 50 46
56 56 53 51 48 43 39 38 38 41 41 37 33 31 28 24 20 18 17 15 12 10 10 12 12 10 12 16 18 21 22 21 19 17 17 17 16 17 19 22 27 29 30 31 34 36 37 39 39 36 36 38 37 36 42 47 48 48 50 47 43 42 44 45 46 47 45 44 44 42 43 44 41 38 41 46 49 52 53 54 56 58 58 57 58 62 66 69 71 72 69 66 63 59 53 46 43
60 60 55 52 49 46 45 43 39 39 42 43 40 37 30 24 19 18 19 18 15 13 11 12 13 12 13 14 14 17 21 21 21 18 17 16 16 16 17 19 22 24 26 27 29 31 33 37 39 35 33 35 34 37 44 48 47 49 49 45 41 42 44 46 47 46 44 44 44 41 40 42 39 37 39 45 48 51 53 54 55 56 57 57 59 63 66 68 69 69 67 65 63 59 52 45 40
60 60 57 52 50 51 51 49 43 40 44 47 47 46 36 25 23 22 23 24 21 18 17 14 13 13 13 13 14 17 21 24 25 23 20 17 16 16 16 17 19 21 23 25 26 27 29 35 37 33 31 31 32 37 44 47 47 48 48 44 43 43 45 46 46 45 44 44 44 41 39 39 38 36 39 44 48 50 52 53 54 55 57 59 61 64 66 67 67 66 65 65 63 60 53 46 42